Location: DaVinci Observatory
(43.1080°N, 78.6453°W)
Time: 21:23:31
(UTC-04:00)

OTV 5 (USA 277) - Pass Details

Date: 10 October 2017
Orbit: 404 x 417 km, 43.0° (Epoch: 07 September)

Event Time Altitude Azimuth Distance (km) Brightness Sun altitude
Rises 21:19:21 0° 257° (WSW) 2,351 ? -29.6°
Reaches altitude 10° 21:21:27 10° 256° (WSW) 1,488 ? -30.0°
Enters shadow 21:21:37 11° 256° (WSW) 1,422 ? -30.0°
